www.pogodaiklimat.ru

Погода и климат >> Архив погоды >> Россия >> Челябинская область >> Челябинск


АРХИВ ПОГОДЫ в Челябинске

Время (UTC), дата Ветер
(напр.,м/с)
 
Видим.   Явления Облачность Т
(С)
Тd
(С)
f
(%)
Тe
(С)
Тes
(С)
Комфортность P
(гПа)
Po
(гПа)
Тmin
(С)
Tmax
(С)
R
(мм)
R24
(мм)
S
(см)
06 15.04 С 3 10 км ясно +0.7 -16.1 27 -3 +5 очень
холодно
1022.0 992.7
09 15.04 С 2 10 км ясно +3.5 -18.7 18 +2 +13 опасность
простуды
1019.8 990.9
12 15.04 З 3 10 км ясно +6.2 -19.4 14 +4 +8 прохладно 1017.4 988.7
15 15.04 СЗ 1 20 км ясно +4.6 -17.1 19 +5 +5 по сезону 1015.8 987.0 +6.9
18 15.04 З 1 10 км ясно +0.6 -16.3 27 -0 -0 по сезону 1015.6 986.5
21 15.04 З 2 10 км 8/0
[Ac trans]
+2.3 -13.8 29 0 0 по сезону 1014.2 985.3
00 16.04 З 1 4000 м 3/0
[Ac trans]
+1.3 -11.5 38 0 0 по сезону 1012.8 983.8
03 16.04 З 2 10 км 4/0
[Ac lent]
+2.8 -8.8 42 +1 +2 по сезону 1010.8 982.0 -2.3
06 16.04 З 4
{10}
10 км 10/10 300 м
[Cb calv]
+4.2 -5.0 51 +1 +1 прохладно 1009.5 980.9
09 16.04 З 4 10 км 10/10 300 м
[Cb calv]
+5.2 -4.1 51 +2 +2 прохладно 1008.5 980.0
12 16.04 З 4
{11}
10 км {ливн. осадки} 10/10 300 м
[Cb calv]
+4.6 -3.7 55 +1 +1 очень
холодно
1007.8 979.3
15 16.04 З 3
{12}
20 км 6/6 300 м
[Cb calv]
+2.2 -3.3 67 -2 -2 холодно 1007.5 978.8 0.0
18 16.04 С 3 10 км {ливн. осадки} 9/8 300 м
[Cb calv]
-0.3 -3.2 81 -5 -5 холодно 1009.0 980.0
21 16.04 С 5-11
{12}
4000 м слаб. ливневой дождь 10/10 300 м
[Cb calv]
-4.0 -5.5 89 -11 -11 очень
холодно
1012.1 982.6
00 17.04 С 5-11
{14}
2000 м ливневой снег 10/10 300 м
[Cb calv]
-6.8 -8.5 88 -14 -14 очень
холодно
1016.2 986.3
03 17.04 С 6-11
{13}
10 км {ливн. осадки} ясно -8.0 -15.5 55 -16 -15 очень
холодно
1019.7 989.5 -8.2 5 5
06 17.04 С 6-12
{12}
20 км {ливн. осадки} 6/6 300 м
[Cb calv]
-6.4 -17.7 40 -14 -12 очень
холодно
1021.7 991.6
09 17.04 СЗ 5-11
{13}
20 км 8/8 300 м
[Cb calv]
-4.0 -12.4 52 -10 -9 очень
холодно
1023.4 993.5
12 17.04 С 4-10
{14}
20 км 6/6 300 м
[Cb calv]
-2.9 -13.7 43 -8 -7 очень
холодно
1025.4 995.6
15 17.04 СЗ 3
{11}
20 км 4/4 300 м
[Cb calv]
-3.4 -15.9 37 -8 -8 очень
холодно
1026.5 996.6 -2.3
18 17.04 СЗ 2 10 км ясно -6.1 -16.5 44 -10 -10 очень
холодно
1028.7 998.4
21 17.04 З 1 10 км ясно -10.5 -15.2 68 -13 -13 очень
холодно
1030.8 999.9
00 18.04 штиль 0 10 км ясно -10.6 -13.8 77 -11 -11 очень
холодно
1031.5 1000.7
03 18.04 ЮВ 1 10 км ясно -7.3 -12.5 66 -9 -7 очень
холодно
1031.6 1001.1 -12.0 2
06 18.04 З 3 10 км ясно -0.1 -16.2 29 -4 +5 очень
холодно
1030.9 1001.2
09 18.04 З 2 10 км ясно +3.7 -15.6 23 +2 +13 опасность
простуды
1029.9 1000.6
12 18.04 СЗ 1 20 км ясно +5.4 -16.8 18 +5 +10 прохладно 1028.2 999.2
15 18.04 С 1 20 км ясно +2.7 -17.1 22 +2 +2 прохладно 1027.6 998.3 +5.4
18 18.04 Ю 1 10 км ясно -4.9 -11.0 62 -7 -7 очень
холодно
1029.0 998.9
21 18.04 ЮВ 1 10 км ясно -6.9 -10.1 78 -9 -9 очень
холодно
1028.6 998.3
00 19.04 штиль 0 10 км ясно -8.4 -10.5 85 -9 -9 очень
холодно
1027.6 997.2
03 19.04 штиль 0 10 км ясно -5.2 -9.7 71 -6 -3 очень
холодно
1026.5 996.4 -9.5
06 19.04 С 2 10 км ясно +5.7 -18.1 16 +4 +14 опасность
простуды
1024.0 995.1
09 19.04 С 2 10 км ясно +7.7 -16.9 16 +7 +18 опасность
простуды
1021.9 993.3
12 19.04 С 3 10 км ясно +8.6 -16.5 15 +7 +11 по сезону 1020.4 991.9
15 19.04 СЗ 1 20 км ясно +6.1 -15.9 19 +6 +6 по сезону 1020.2 991.5 +9.0
18 19.04 штиль 0 10 км ясно -3.1 -10.8 55 -4 -4 холодно 1021.4 991.7
21 19.04 Ю 1 10 км ясно -4.5 -8.4 74 -7 -7 очень
холодно
1021.5 991.6
00 20.04 СЗ 2 20 км ясно -0.8 -9.4 52 -4 -4 прохладно 1021.5 992.0
03 20.04 СЗ 2 10 км ясно +2.7 -8.9 42 0 +3 прохладно 1021.6 992.5 -4.6
06 20.04 СЗ 4 10 км 6/6 300 м
[Cb calv]
+7.8 -8.5 30 +5 +8 по сезону 1020.9 992.3
09 20.04 С 4
{10}
10 км 8/8 300 м
[Cb calv]
+7.9 -6.7 35 +5 +7 прохладно 1021.2 992.6
12 20.04 СЗ 4
{11}
10 км 8/0
[Ci fib]
+7.0 -6.8 37 +4 +7 холодно 1021.9 993.2
15 20.04 СЗ 3 20 км 4/0
[Ci fib]
+4.4 -6.7 44 +2 +2 холодно 1023.0 994.1 +8.5
18 20.04 СЗ 2 10 км 8/0
[Ci fib]
+2.2 -6.1 54 -0 -0 прохладно 1024.0 994.8
21 20.04 штиль 0 10 км ясно -0.3 -4.6 73 -1 -1 прохладно 1024.7 995.2
00 21.04 штиль 0 20 км 10/10 300 м
[Cb calv]
-0.2 -3.5 78 -1 -1 по сезону 1024.4 994.9
03 21.04 ЮВ 1 10 км ясно +2.4 -3.5 65 +1 +4 по сезону 1024.6 995.4 -0.8
06 21.04 З 2 20 км 8/8 300 м
[Cb calv]
+8.0 -40.6 2 +7 +9 по сезону 1023.7 995.1
09 21.04 СЗ 2 20 км 6/6 300 м
[Cb calv]
+9.4 -7.2 30 +9 +13 по сезону 1022.5 994.1
12 21.04 СЗ 2 20 км 8/8 300 м
[Cb calv]
+8.4 -6.7 34 +7 +8 по сезону 1022.1 993.6
15 21.04 СЗ 2 20 км 6/6 300 м
[Cb calv]
+7.0 -6.1 39 +6 +6 по сезону 1022.0 993.4 +10.8
18 21.04 СЗ 2 4000 м 10/10 300 м
[Cb calv]
+5.5 -6.5 42 +4 +4 по сезону 1022.8 994.0
21 21.04 ЮВ 1 10 км 6/6 300 м
[Cb calv]
+0.7 -4.1 70 -1 -1 по сезону 1022.8 993.5
00 22.04 штиль 0 20 км 8/8 300 м
[Cb calv]
+1.1 -3.4 72 0 0 по сезону 1022.6 993.3
03 22.04 Ю 1 10 км 8/8 600 м
[Sc]
+3.5 -3.1 62 +2 +3 по сезону 1022.5 993.5 +0.6

 

Местоположение метеостанции Челябинск (Челябинская область, Россия): широта 55.15 долгота 61.30 высота над уровнем моря 237 м.

В архиве по умолчанию представлена погода в Челябинске за последнюю неделю. Архивные данные за месяц целиком и за предыдущие месяцы, начиная с января 2011 года, Вы можете получить, выбрав интересующий диапазон дат из раскрывающегося списка и нажав кнопку "Ввод!".


*Определитесь, кто Вы:
робот инопланетянин человек

Внимание! Время в таблицах - всемирное. Для получения местного времени необходимо прибавить поправку, которая равна 5 ч.

Смотрите также архив погоды в соседних городах и на ближайших метеорологических станциях:

Погода в Аргаяше (Челябинская область, Россия) (51 км)
Погода в Бродокалмаке (Челябинская область, Россия) (68 км)
Погода в Миассе (Челябинская область, Россия) (79 км)
Погода в Южноуральске (Челябинская область, Россия) (80 км)
Погода в Мирном (Челябинская область, Россия) (92 км)
Погода в Златоусте (Челябинская область, Россия) (104 км)
Погода в Троицке (Челябинская область, Россия) (121 км)
Погода в Верхнем Уфалее (Челябинская область, Россия) (121 км)
Погода в Октябрьском (Челябинская область, Россия) (121 км)
Погода в Шумихе (Курганская область, Россия) (129 км)

Пояснения к столбцам:

Ветер - указаны скорость ветра в м/с - средняя за 10 мин, порывы в срок и между сроками (в фигурных скобках) и направление, откуда дует ветер: С - северный, СВ - северо-восточный, В - восточный, ЮВ - юго-восточный, Ю - южный, ЮЗ - юго-западный, З - западный, СЗ - северо-западный.
Видимость - горизонтальная дальность видимости в метрах или километрах. При видимости от 1 до 10 км при отсутствии осадков обычно наблюдается дымка, при ухудшении видимости до 1 км и менее - туман. В сухую погоду видимость может ухудшаться дымом, пылью или мглою.
Явления - указаны атмосферные явления, наблюдавшиеся в срок или в последний час перед сроком; фигурными скобками обозначены явления, наблюдавшиеся между сроками (за 1-3 часа до срока); квадратными скобками обозначены град или гололедные отложения с указанием их диаметра в мм.
Облачность - указаны через наклонную черту общая и нижняя облачность в баллах и высота нижней границы облаков в метрах; квадратными скобками обозначены формы облаков: Ci - перистые, Cs - перисто-слоистые, Cc - перисто-кучевые, Ac - высококучевые, As - высокослоистые, Sc - слоисто-кучевые, Ns - слоисто-дождевые, Cu - кучевые, Cb - кучево-дождевые. Подробнее классификацию облаков см. в Атласе облаков (PDF).
T - Температура воздуха - температура, измеренная на высоте 2 м над землей.
Td - Температура точки росы - температура, при понижении до которой содержащийся в воздухе водяной пар достигнет насыщения.
f - Относительная влажность воздуха - влажноcть воздуха, измеренная на высоте 2 м над землей.
Te - Эффективная температура - температура, которую ощущает одетый по сезону человек в тени. Характеристика душности погоды. При расчете учитывается влияние влажности воздуха и скорости ветра на теплоощущения человека.
Tes - Эффективная температура на солнце - температура, которую ощущает человек, с поправкой на солнечный нагрев. Характеристика знойности погоды. Зависит от высоты солнца над горизонтом, облачности и скорости ветра. Ночью, в пасмурную погоду, а также при ветре 12 м/с и более поправка равна нулю.
P - Атмосферное давление - приведенное к уровню моря атмосферное давление.
Po - Атмосферное давление - измеренное на уровне метеостанции атмосферное давление.
Tmin - Минимальная температура - минимум температуры воздуха на высоте 2 м над землей.
Tmax - Максимальная температура - максимум температуры воздуха на высоте 2 м над землей.
R - Количество осадков - Количество выпавших осадков за период времени, мм. При наведении курсора мыши на число - период времени, за который выпало указанное количество осадков.
R24 - Количество осадков - Количество выпавших осадков за 24 часа, мм.
S - Снежный покров - Высота снежного покрова, см. При наведении курсора мыши на число - состояние снежного покрова и степень покрытия местности в баллах.